sat.trackr.live / text

‹ back to catalog

STARLINK-31612

NORAD 59337 · 2024-057T

PAYLOAD ACTIVE UNKNOWN

§ Identity

Operator
Country
US
Launch date
2024-03-25
Launch site
AFETR
Launch vehicle
Mass (kg)
RCS (m²)

Purposes: comms

External: N2YO · Heavens-Above · Gunter

§ Orbital elements

Epoch: 2026-09-20T10:36:04.302144Z

Period
94.27 min
Inclination
43.0028°
Eccentricity
0.0000942
Mean motion
15.27578357 rev/d
Perigee alt
482.4 km
Apogee alt
483.7 km
Semi-major
6,861.2 km
B*
-2.4027e-6
RAAN
167.2350°
Arg perigee
277.0029°
Mean anomaly
83.0716°
Rev number
13,962

§ Raw data

STARLINK-316121 59337U 24057T   26263.44171646 -.00000328  00000+0 -24027-5 0  99912 59337  43.0028 167.2350 0000942 277.0029  83.0716 15.27578357139628

JSON: /api/v1/satellites/59337 · /tle

For live sub-satellite position, see the globe view (requires WebGL).

§ Visibility from observer

Set your observer location to see the next 7 days of passes ≥ 10°. The values pass through the URL so the page stays shareable.

No JS? Fill the form by hand. The geolocation button needs JavaScript.